EW4441 Weather Reports


time (UTC)temp
F
wind
direction
speed
knots
gust
knots
rain 1hr
in
rain 24hr
in
rain mn
in
humidity
%
barometer
mb
20260503013005 82 98 0.0 0.0 0.00 0.00 0.00 100 1014.7
20260503011504 82 120 0.0 0.0 0.00 0.00 0.00 100 1014.6
20260503010002 82 122 0.0 0.0 0.00 0.00 0.00 100 1014.4
20260503004502 83 137 0.0 0.0 0.00 0.00 0.00 100 1014.3
20260503001557 82 137 0.0 0.0 0.00 0.00 0.00 100 1013.9
20260503000109 83 166 0.0 0.0 0.00 0.00 0.00 100 1013.7
20260502234557 83 147 0.0 0.0 0.00 0.00 0.00 100 1013.4
20260502233054 84 119 0.0 0.0 0.00 0.00 0.00 100 1013.2
20260502231616 84 150 0.0 0.0 0.00 0.00 0.00 100 1013.0
20260502230054 85 115 0.0 0.0 0.00 0.00 0.00 100 1012.9
20260502224558 86 110 0.0 0.0 0.00 0.00 0.00 100 1012.9
20260502223054 87 110 0.0 0.0 0.00 0.00 0.00 100 1012.6
20260502221557 87 114 0.0 0.0 0.00 0.00 0.00 100 1012.4
20260502220052 88 104 0.0 0.0 0.00 0.00 0.00 100 1012.4
20260502214552 88 110 0.0 0.0 0.00 0.00 0.00 100 1012.2
20260502213053 88 115 0.0 0.9 0.00 0.00 0.00 100 1012.2
20260502211556 88 109 0.0 0.0 0.00 0.00 0.00 100 1012.1
20260502210052 89 121 0.0 0.0 0.00 0.00 0.00 100 1012.0
20260502204552 89 81 0.0 0.9 0.00 0.00 0.00 100 1011.9
20260502203049 91 104 0.0 0.0 0.00 0.00 0.00 100 1011.8
20260502201548 91 105 0.0 1.7 0.00 0.00 0.00 100 1011.8
20260502200048 90 116 0.0 1.7 0.00 0.00 0.00 100 1011.9
20260502194553 91 105 0.0 0.0 0.00 0.00 0.00 100 1012.0
20260502193104 92 100 0.0 0.0 0.00 0.00 0.00 100 1012.1
20260502191559 93 136 0.0 0.0 0.00 0.00 0.00 100 1012.2
20260502190050 92 108 0.0 1.7 0.00 0.00 0.00 100 1012.4
20260502184556 91 122 0.0 1.7 0.00 0.00 0.00 100 1012.8
20260502183044 90 92 0.9 1.7 0.00 0.00 0.00 100 1012.8
20260502181548 90 108 0.9 2.6 0.00 0.00 0.00 100 1013.1
20260502163045 91 103 0.0 0.9 0.00 0.00 0.00 100 1013.9
20260502161600 91 108 0.0 1.7 0.00 0.00 0.00 100 1014.0
20260502151533 88 94 0.0 0.0 0.00 0.00 0.00 100 1014.3
20260502123012 82 79 0.0 0.0 0.00 0.00 0.00 100 1013.6
20260502121507 82 92 0.0 0.9 0.00 0.00 0.00 100 1013.4
20260502114503 80 99 0.0 0.0 0.00 0.00 0.00 100 1013.2
20260502113100 0 0.0 0.0 0.00 0.00 0.00 1013.3
20260502111556 0 0.0 0.0 0.00 0.00 0.00 1013.2
20260502104553 0 0.0 0.0 0.00 0.00 0.00 1012.9
20260502103048 0 0.0 0.0 0.00 0.00 0.00 1012.8
20260502101553 0 0.0 0.0 0.00 0.00 0.00 1012.5
20260502091527 0 0.0 0.0 0.00 0.00 0.00 1012.1
20260502071528 79 134 0.0 0.0 0.00 0.00 0.00 100 1012.2
20260502070012 79 134 0.0 0.0 0.00 0.00 0.00 100 1012.2
20260502064511 79 141 0.0 0.0 0.00 0.00 0.00 100 1012.3
20260502063011 79 142 0.0 0.0 0.00 0.00 0.00 100 1012.5
20260502061512 79 143 0.0 0.0 0.00 0.00 0.00 100 1012.6
20260502060010 79 100 0.0 0.0 0.00 0.00 0.00 100 1012.7
20260502054520 79 100 0.0 0.0 0.00 0.00 0.00 100 1013.0
20260502053009 80 100 0.0 0.0 0.00 0.00 0.00 100 1013.1
20260502051515 80 98 0.0 0.0 0.00 0.00 0.00 100 1013.3
20260502050022 80 89 0.0 0.0 0.00 0.00 0.00 100 1013.4
20260502044507 80 110 0.0 0.0 0.00 0.00 0.00 100 1013.5
20260502043006 80 105 0.0 0.0 0.00 0.00 0.00 100 1013.5
20260502041506 80 86 0.0 0.0 0.00 0.00 0.00 100 1013.5
20260502040007 80 103 0.0 0.0 0.00 0.00 0.00 100 1013.6
20260502033015 80 95 0.0 0.0 0.00 0.00 0.00 100 1013.6
20260502031507 80 106 0.0 0.0 0.00 0.00 0.00 100 1013.5
20260502030017 80 114 0.0 0.0 0.00 0.00 0.00 100 1013.5
20260502024505 80 130 0.0 0.0 0.00 0.00 0.00 100 1013.2
20260502023005 80 106 0.0 0.0 0.00 0.00 0.00 100 1013.0
20260502021504 80 110 0.0 0.0 0.00 0.00 0.00 100 1012.8
20260502020006 81 103 0.0 0.0 0.00 0.00 0.00 100 1012.7
20260502014505 81 119 0.0 0.0 0.00 0.00 0.00 100 1012.6